Weather History for Truckee-Tahoe, CA

Change the Weather History Date:

Monday, April 7, 2014

  Actual Average Record
Temperature  
Mean Temperature 44 °F -  
Max Temperature 68 °F 51 °F 78 °F (1989)
Min Temperature 19 °F 23 °F 3 °F (1975)
Degree Days  
Heating Degree Days 22    
Moisture  
Dew Point 27 °F    
Average Humidity 69    
Maximum Humidity 100    
Minimum Humidity 17    
Precipitation  
Precipitation 0.00 in - - ()
Sea Level Pressure  
Sea Level Pressure 30.33 in    
Wind  
Wind Speed 2 mph (SSW)    
Max Wind Speed 12 mph    
Max Gust Speed 16 mph    
Visibility 10 miles    
Events      
Averages and records for this station are not official NWS values.
T = Trace of Precipitation, MM = Missing Value Source: NWS Daily Summary

Daily Weather History Graph

Daily Weather History Graph

Search for Another Location

Airport:

Trip Planner

Search our weather history database for the weather conditions in past years. The results will help you decide how hot, cold, wet, or windy it might be!

Date:

Astronomy

Apr. 07, 2014 Rise Set
Actual Time 6:35 AM PDT 7:30 PM PDT
Civil Twilight 6:08 AM PDT 7:57 PM PDT
Nautical Twilight 5:35 AM PDT 8:30 PM PDT
Astronomical Twilight 5:02 AM PDT 9:03 PM PDT
Moon 12:36 PM PDT (4/7) 2:10 AM PDT (4/7)
Length of Visible Light 13h 49m
Length of Day
12h 54m
First Quarter, 54% of the Moon is Illuminated
Apr 7
First Quarter
Apr 15
Full
Apr 22
Last Quarter
Apr 28
New
May 6
First Quarter

Hourly Weather History & Observations

Time (PDT) Temp. Windchill Dew Point Humidity Pressure Visibility Wind Dir Wind Speed Gust Speed Precip Events Conditions
12:15 AM 32.0 °F - 26.6 °F 80% 30.35 in 10.0 mi Calm Calm - N/A   Clear
12:35 AM 32.0 °F - 26.6 °F 80% 30.35 in 10.0 mi Calm Calm - N/A   Clear
12:55 AM 28.4 °F - 24.8 °F 86% 30.35 in 10.0 mi Calm Calm - N/A   Clear
1:15 AM 28.4 °F - 26.6 °F 93% 30.34 in 10.0 mi Calm Calm - N/A   Clear
1:35 AM 28.4 °F - 26.6 °F 93% 30.35 in 10.0 mi Calm Calm - N/A   Clear
1:55 AM 30.2 °F - 26.6 °F 86% 30.35 in 10.0 mi Calm Calm - N/A   Clear
2:15 AM 28.4 °F - 26.6 °F 93% 30.34 in 10.0 mi Calm Calm - N/A   Clear
2:35 AM 26.6 °F - 26.6 °F 100% 30.34 in 10.0 mi Calm Calm - N/A   Clear
2:55 AM 26.6 °F - 24.8 °F 93% 30.35 in 10.0 mi Calm Calm - N/A   Clear
3:15 AM 24.8 °F - 23.0 °F 93% 30.35 in 10.0 mi Calm Calm - N/A   Clear
3:35 AM 26.6 °F - 24.8 °F 93% 30.35 in 10.0 mi Calm Calm - N/A   Clear
3:55 AM 26.6 °F - 24.8 °F 93% 30.35 in 10.0 mi Calm Calm - N/A   Clear
4:15 AM 28.4 °F - 24.8 °F 86% 30.35 in 10.0 mi Calm Calm - N/A   Clear
4:35 AM 23.0 °F 18.4 °F 21.2 °F 93% 30.35 in 10.0 mi South 3.5 mph - N/A   Clear
4:55 AM 24.8 °F - 23.0 °F 93% 30.34 in 10.0 mi Calm Calm - N/A   Clear
5:15 AM 23.0 °F - 23.0 °F 100% 30.35 in 7.0 mi Calm Calm - N/A   Clear
5:35 AM 24.8 °F - 24.8 °F 100% 30.35 in 7.0 mi Calm Calm - N/A   Clear
5:55 AM 24.8 °F - 23.0 °F 93% 30.35 in 10.0 mi Calm Calm - N/A   Clear
6:15 AM 23.0 °F - 21.2 °F 93% 30.35 in 10.0 mi Calm Calm - N/A   Clear
6:35 AM 19.4 °F - 19.4 °F 100% 30.35 in 5.0 mi Calm Calm - N/A   Clear
6:55 AM 23.0 °F - 23.0 °F 100% 30.35 in 10.0 mi Calm Calm - N/A   Clear
7:50 AM 28.4 °F - 26.6 °F 93% 30.36 in 10.0 mi Calm Calm - N/A   Clear
8:50 AM 33.8 °F - 28.4 °F 81% 30.26 in 10.0 mi Calm Calm - N/A   Clear
9:45 AM 44.6 °F - 28.4 °F 53% 30.35 in 10.0 mi Calm Calm - N/A   Clear
10:45 AM 51.8 °F - 26.6 °F 38% 30.35 in 10.0 mi North 5.8 mph - N/A   Clear
11:50 AM 60.8 °F - 26.6 °F 27% 30.34 in 10.0 mi ESE 8.1 mph - N/A   Clear
12:45 PM 62.6 °F - 24.8 °F 24% 30.32 in 10.0 mi ESE 11.5 mph - N/A   Clear
1:45 PM 64.4 °F - 24.8 °F 22% 30.31 in 10.0 mi Calm Calm - N/A   Clear
2:50 PM 68.0 °F - 21.2 °F 17% 30.31 in 10.0 mi West 11.5 mph 16.1 mph N/A   Clear
3:55 PM 66.2 °F - 21.2 °F 18% 30.30 in 10.0 mi WSW 10.4 mph - N/A   Clear
4:45 PM 64.4 °F - 23.0 °F 21% 30.29 in 10.0 mi West 6.9 mph 11.5 mph N/A   Clear
5:45 PM 64.4 °F - 26.6 °F 24% 30.29 in 10.0 mi WSW 8.1 mph - N/A   Clear
6:15 PM 62.6 °F - 26.6 °F 26% 30.29 in 10.0 mi SW 10.4 mph - N/A   Clear
6:35 PM 60.8 °F - 28.4 °F 29% 30.29 in 10.0 mi SW 9.2 mph - N/A   Clear
6:55 PM 59.0 °F - 28.4 °F 31% 30.29 in 10.0 mi WSW 6.9 mph - N/A   Clear
7:15 PM 55.4 °F - 28.4 °F 36% 30.29 in 10.0 mi WSW 5.8 mph - N/A   Clear
7:35 PM 53.6 °F - 30.2 °F 41% 30.29 in 10.0 mi SW 4.6 mph - N/A   Clear
7:55 PM 48.2 °F - 30.2 °F 50% 30.30 in 10.0 mi SSE 4.6 mph - N/A   Clear
8:15 PM 44.6 °F 42.2 °F 30.2 °F 57% 30.31 in 10.0 mi SE 4.6 mph - N/A   Clear
8:35 PM 42.8 °F 40.1 °F 30.2 °F 61% 30.31 in 10.0 mi SE 4.6 mph - N/A   Clear
8:55 PM 41.0 °F - 30.2 °F 65% 30.32 in 10.0 mi Calm Calm - N/A   Clear
9:15 PM 42.8 °F - 32.0 °F 66% 30.32 in 10.0 mi Calm Calm - N/A   Clear
9:35 PM 42.8 °F 41.1 °F 32.0 °F 66% 30.33 in 10.0 mi East 3.5 mph - N/A   Clear
9:55 PM 39.2 °F - 30.2 °F 70% 30.34 in 10.0 mi Calm Calm - N/A   Clear
10:15 PM 37.4 °F - 32.0 °F 81% 30.34 in 10.0 mi Calm Calm - N/A   Clear
10:35 PM 35.6 °F - 30.2 °F 81% 30.34 in 10.0 mi Calm Calm - N/A   Clear
10:55 PM 35.6 °F - 32.0 °F 87% 30.34 in 10.0 mi Calm Calm - N/A   Clear
11:15 PM 37.4 °F - 32.0 °F 81% 30.34 in 10.0 mi Calm Calm - N/A   Clear
11:35 PM 35.6 °F - 32.0 °F 87% 30.35 in 10.0 mi Calm Calm - N/A   Clear
11:55 PM 32.0 °F 28.7 °F 30.2 °F 93% 30.35 in 10.0 mi SSE 3.5 mph - N/A   Clear